Torna al catalogo

MEASAT 2

AttivoComunicazioniGEO
NORAD 24653·PAYLOAD·🇲🇾 Malaysia

Lanciato Nov 13, 1996 da Guiana Space Centre

Loading…

TLE

AggiornatoSource: Space-Track

Epoca: Sep 14, 2026, 13:50 UTC

1 24653U 96063B   26257.57648769 -.00000076  00000-0  00000-0 0  9992
2 24653  12.3901  28.2792 0006180 196.6520 344.1231  0.99659868109178

Traccia MEASAT 2 in tempo reale con AllMySat

Download on the App Store